Canyon City, OR

9:21 AM PST on February 23, 2017 (GMT -0800)
Grant County Regional

Weather History for KGCD - August, 2013

Change the Weather History Date:

Monday, August 12, 2013

  Actual Average (KBNO) Record (KBNO)
Temperature  
Mean Temperature 70 °F -  
Max Temperature 87 °F 85 °F 99 °F (1992)
Min Temperature 53 °F 44 °F 36 °F (1995)
Cooling Degree Days 4    
Growing Degree Days 20 (Base 50)    
Moisture  
Dew Point 46 °F    
Average Humidity 46    
Maximum Humidity 74    
Minimum Humidity 18    
Precipitation  
Precipitation 0.00 in - - ()
Sea Level Pressure  
Sea Level Pressure 30.05 in    
Wind  
Wind Speed 5 mph (WSW)    
Max Wind Speed 9 mph    
Max Gust Speed -    
Visibility 10 miles    
Events Rain , Thunderstorm    
Averages and records for this station are not official NWS values.
T = Trace of Precipitation, MM = Missing Value Source: NWS Daily Summary

Daily Weather History Graph

Daily Weather History Graph

Search for Another Location

Airport or City:

Trip Planner

Search our weather history database for the weather conditions in past years. The results will help you decide how hot, cold, wet, or windy it might be!

Date:

Astronomy

Aug. 12, 2013 Rise Set
Actual Time 5:55 AM PDT 8:05 PM PDT
Civil Twilight 5:23 AM PDT 8:36 PM PDT
Nautical Twilight 4:44 AM PDT 9:15 PM PDT
Astronomical Twilight 4:00 AM PDT 9:59 PM PDT
Moon 12:08 PM PDT (8/12) 10:44 PM PDT (8/12)
Length of Visible Light 15h 12m
Length of Day
14h 09m
Waxing Crescent, 32% of the Moon is Illuminated
Aug 12
Waxing Crescent
Aug 14
First Quarter
Aug 20
Full
Aug 28
Last Quarter
Sep 5
New

Hourly Weather History & Observations

Time (PDT) Temp. Dew Point Humidity Pressure Visibility Wind Dir Wind Speed Gust Speed Precip Events Conditions
12:15 AM 64.0 °F 48.2 °F 56% 30.05 in 10.0 mi West 5.8 mph - N/A   Clear
12:35 AM 63.0 °F 47.5 °F 57% 30.06 in 10.0 mi West 4.6 mph - N/A   Clear
12:55 AM 63.5 °F 47.5 °F 56% 30.06 in 10.0 mi WSW 8.1 mph - N/A   Clear
1:15 AM 63.0 °F 46.4 °F 55% 30.06 in 10.0 mi WSW 5.8 mph - N/A   Clear
1:35 AM 61.9 °F 46.6 °F 57% 30.06 in 10.0 mi WSW 5.8 mph - N/A   Clear
1:55 AM 60.8 °F 46.2 °F 59% 30.06 in 10.0 mi WSW 4.6 mph - N/A   Clear
2:15 AM 61.0 °F 46.2 °F 58% 30.06 in 10.0 mi WSW 3.5 mph - N/A   Clear
2:35 AM 61.2 °F 46.4 °F 58% 30.06 in 10.0 mi SW 3.5 mph - N/A   Clear
2:55 AM 60.8 °F 46.2 °F 59% 30.06 in 10.0 mi WSW 4.6 mph - N/A   Clear
3:15 AM 60.4 °F 46.4 °F 60% 30.05 in 10.0 mi SW 5.8 mph - N/A   Clear
3:35 AM 58.8 °F 46.2 °F 63% 30.05 in 10.0 mi WSW 6.9 mph - N/A   Clear
3:55 AM 58.8 °F 46.2 °F 63% 30.06 in 10.0 mi SW 5.8 mph - N/A   Clear
4:15 AM 57.9 °F 46.2 °F 65% 30.06 in 10.0 mi SW 5.8 mph - N/A   Clear
4:35 AM 57.9 °F 46.2 °F 65% 30.06 in 10.0 mi SW 4.6 mph - N/A   Clear
4:55 AM 57.7 °F 46.4 °F 66% 30.07 in 10.0 mi Calm Calm - N/A   Clear
5:15 AM 58.1 °F 46.4 °F 65% 30.07 in 10.0 mi Calm Calm - N/A   Clear
5:35 AM 57.0 °F 45.7 °F 66% 30.07 in 10.0 mi Calm Calm - N/A   Clear
5:55 AM 54.7 °F 45.5 °F 71% 30.08 in 10.0 mi East 4.6 mph - N/A   Clear
6:15 AM 53.6 °F 45.5 °F 74% 30.09 in 10.0 mi ESE 4.6 mph - N/A   Clear
6:35 AM 54.7 °F 45.9 °F 72% 30.09 in 10.0 mi East 5.8 mph - N/A   Clear
6:55 AM 55.8 °F 46.4 °F 71% 30.09 in 10.0 mi East 6.9 mph - N/A   Clear
7:15 AM 56.8 °F 46.8 °F 69% 30.09 in 10.0 mi East 6.9 mph - N/A   Clear
7:35 AM 58.1 °F 46.6 °F 65% 30.09 in 10.0 mi East 5.8 mph - N/A   Clear
7:55 AM 59.4 °F 47.1 °F 64% 30.09 in 10.0 mi East 4.6 mph - N/A   Clear
8:15 AM 61.0 °F 47.3 °F 61% 30.10 in 10.0 mi East 3.5 mph - N/A   Clear
8:35 AM 62.4 °F 47.1 °F 57% 30.09 in 10.0 mi Calm Calm - N/A   Clear
8:55 AM 64.6 °F 47.1 °F 53% 30.09 in 10.0 mi South 3.5 mph - N/A   Clear
9:15 AM 66.2 °F 46.9 °F 50% 30.09 in 10.0 mi Calm Calm - N/A   Clear
9:35 AM 68.0 °F 46.8 °F 47% 30.09 in 10.0 mi Calm Calm - N/A   Clear
9:55 AM 69.1 °F 46.4 °F 44% 30.09 in 10.0 mi Calm Calm - N/A   Clear
10:15 AM 70.9 °F 46.6 °F 42% 30.08 in 10.0 mi SW 4.6 mph - N/A   Clear
10:35 AM 71.6 °F 46.8 °F 41% 30.08 in 10.0 mi West 4.6 mph - N/A   Clear
10:55 AM 72.7 °F 47.3 °F 40% 30.08 in 10.0 mi Calm Calm - N/A   Clear
11:15 AM 74.7 °F 47.5 °F 38% 30.08 in 10.0 mi West 4.6 mph - N/A   Clear
11:35 AM 76.3 °F 47.5 °F 36% 30.07 in 10.0 mi West 5.8 mph - N/A   Clear
11:55 AM 77.0 °F 47.7 °F 35% 30.07 in 10.0 mi West 6.9 mph - N/A   Clear
12:15 PM 79.0 °F 47.3 °F 33% 30.06 in 10.0 mi West 5.8 mph - N/A   Clear
12:35 PM 80.8 °F 47.7 °F 31% 30.05 in 10.0 mi West 4.6 mph - N/A   Clear
12:55 PM 81.1 °F 44.6 °F 28% 30.04 in 10.0 mi West 3.5 mph - N/A   Clear
1:15 PM 81.3 °F 44.2 °F 27% 30.04 in 10.0 mi WNW 5.8 mph - N/A   Clear
1:35 PM 81.9 °F 41.0 °F 23% 30.03 in 10.0 mi West 6.9 mph - N/A   Clear
1:55 PM 83.5 °F 38.3 °F 20% 30.03 in 10.0 mi WNW 9.2 mph - N/A   Clear
2:15 PM 81.5 °F 37.4 °F 21% 30.03 in 10.0 mi West 9.2 mph - N/A   Clear
2:35 PM 85.5 °F 36.9 °F 18% 30.02 in 10.0 mi WSW 4.6 mph - N/A   Clear
2:55 PM 85.1 °F 41.7 °F 22% 30.01 in 10.0 mi NW 5.8 mph - N/A   Clear
3:15 PM 86.4 °F 41.7 °F 21% 30.01 in 10.0 mi ENE 3.5 mph - N/A   Clear
3:35 PM 83.8 °F 41.0 °F 22% 30.00 in 10.0 mi Calm Calm - N/A   Clear
3:55 PM 83.3 °F 40.1 °F 22% 30.00 in 10.0 mi SW 5.8 mph - N/A   Clear
4:15 PM 83.5 °F 40.1 °F 21% 29.99 in 10.0 mi WSW 3.5 mph - N/A   Clear
4:35 PM 83.1 °F 40.3 °F 22% 29.99 in 10.0 mi Calm Calm - N/A   Scattered Clouds
4:55 PM 82.9 °F 41.7 °F 23% 30.00 in 10.0 mi South 9.2 mph - N/A   Scattered Clouds
5:15 PM 80.6 °F 45.5 °F 29% 29.99 in 10.0 mi West 4.6 mph - N/A Rain Light Rain
5:35 PM 80.1 °F 45.5 °F 30% 29.99 in 10.0 mi Calm Calm - N/A   Scattered Clouds
5:55 PM 78.4 °F 49.1 °F 36% 29.99 in 10.0 mi Calm Calm - N/A   Scattered Clouds
6:15 PM 75.7 °F 51.4 °F 43% 30.00 in 10.0 mi Calm Calm - N/A   Clear
6:35 PM 78.1 °F 45.0 °F 31% 29.99 in 10.0 mi NE 4.6 mph - N/A Thunderstorm Scattered Clouds
6:55 PM 77.0 °F 45.7 °F 33% 30.00 in 10.0 mi Calm Calm - N/A   Scattered Clouds
7:15 PM 74.5 °F 49.3 °F 41% 30.01 in 10.0 mi West 4.6 mph - N/A   Clear
7:35 PM 76.5 °F 46.8 °F 35% 30.02 in 10.0 mi Calm Calm - N/A Thunderstorm Scattered Clouds
7:55 PM 75.7 °F 46.0 °F 35% 30.02 in 10.0 mi North 5.8 mph - N/A   Scattered Clouds
8:15 PM 73.4 °F 47.5 °F 40% 30.03 in 10.0 mi West 8.1 mph - N/A   Clear
8:35 PM 69.8 °F 50.4 °F 50% 30.05 in 10.0 mi West 6.9 mph - N/A   Clear
8:55 PM 68.2 °F 50.5 °F 53% 30.06 in 10.0 mi West 6.9 mph - N/A   Clear
9:15 PM 68.2 °F 50.2 °F 53% 30.07 in 10.0 mi NW 5.8 mph - N/A   Clear
9:55 PM 67.3 °F 48.7 °F 51% 30.10 in 10.0 mi East 6.9 mph - N/A   Clear
10:15 PM 66.9 °F 48.7 °F 52% 30.10 in 10.0 mi East 3.5 mph - N/A   Clear
10:35 PM 66.4 °F 48.7 °F 53% 30.10 in 10.0 mi Calm Calm - N/A   Clear
10:55 PM 64.9 °F 49.1 °F 56% 30.10 in 10.0 mi ESE 4.6 mph - N/A   Clear
11:15 PM 65.3 °F 49.1 °F 56% 30.10 in 10.0 mi ESE 4.6 mph - N/A   Clear
11:35 PM 63.5 °F 49.1 °F 59% 30.09 in 10.0 mi SW 3.5 mph - N/A   Clear
11:55 PM 65.5 °F 48.0 °F 53% 30.09 in 10.0 mi SE 3.5 mph - N/A   Clear